Home   Weather   Hameln   Past weeks

Flag for Germany Past Weather in Hameln, Lower Saxony, Germany — Yesterday and Last 2 Weeks

Now
45 °F

Partly sunny.


Feels Like: 35 °F
Forecast: 38 / 44 °F
Wind: 28 mph from Southwest

Location: Bueckeburg

Current Time: Feb 28, 2017 at 10:59:38 am

Latest Report: Feb 28, 2017 at 10:09 am


Visibility: N/A

Pressure: 29.24 "Hg

Humidity: 57%

Dew Point: 30 °F

Location of HamelnLocation

Past Weather in Hameln — Graph

°F

Hameln Temperature Yesterday

Maximum temperature yesterday: 55 °F (at 1:20 pm)
Minimum temperature yesterday: 48 °F (at 9:20 pm)
Average temperature yesterday: 52 °F

High & Low Weather Summary for the Past Weeks

 TemperatureHumidityPressure
High55 °F (Feb 27, 1:20 pm)100% (Feb 17, 11:20 am)30.54 "Hg (Feb 17, 11:20 am)
Low23 °F (Feb 14, 4:20 am)41% (Feb 15, 3:20 pm)29.09 "Hg (Feb 23, 7:37 pm)
Average43 °F80%29.97 "Hg
* Reported Feb 13 9:20 am — Feb 28 9:20 am, Hameln, Weather by CustomWeather, © 2017

Note: Actual official high and low records may vary slightly from our data, if they occured in-between our weather recording intervals... More about our weather records

Advertising

Hameln Weather History for the Previous 24 Hours

Scroll right to see more
 ConditionsComfort  
Time TempWeatherWind HumidityBarometerVisibility
9:20 am
Tue, Feb 28
43 °FPartly sunny.24 mph66%29.24 "HgN/A
8:20 am41 °FPartly sunny.20 mph70%29.24 "HgN/A
7:20 am41 °FScattered clouds.22 mph70%29.24 "HgN/A
6:20 am41 °FPassing clouds.22 mph70%29.21 "HgN/A
5:20 am43 °FPassing clouds.20 mph76%29.21 "HgN/A
4:20 am41 °FQuite cool.20 mph87%29.21 "Hg1 mi
3:20 am41 °FQuite cool.21 mph81%29.21 "Hg4 mi
2:20 am46 °FCool.18 mph71%29.21 "Hg4 mi
1:20 am48 °FCool.20 mph66%29.21 "Hg4 mi
12:20 am48 °FCool.20 mph66%29.24 "Hg4 mi
11:20 pm
Mon, Feb 27
48 °FCool.21 mph71%29.24 "Hg4 mi
10:20 pm48 °FCool.21 mph76%29.24 "Hg4 mi
9:20 pm48 °FCool.22 mph76%29.27 "Hg4 mi
8:20 pm54 °FCool.24 mph54%29.24 "Hg4 mi
7:20 pm54 °FPassing clouds.18 mph54%29.27 "HgN/A
6:20 pm54 °FPassing clouds.17 mph58%29.33 "HgN/A
5:20 pm54 °FBroken clouds.17 mph58%29.36 "HgN/A
4:20 pm54 °FPartly sunny.14 mph58%29.39 "HgN/A
3:20 pm55 °FPartly sunny.12 mph59%29.42 "HgN/A
2:20 pm55 °FPartly sunny.13 mph59%29.47 "HgN/A
1:20 pm55 °FPartly sunny.12 mph59%29.50 "HgN/A
12:20 pm54 °FPartly sunny.12 mph63%29.53 "HgN/A
11:20 am54 °FPartly sunny.15 mph63%29.56 "HgN/A
10:20 am52 °FPartly sunny.15 mph67%29.59 "HgN/A
Weather by CustomWeather, © 2017

See weather overviewHow to use our weather pages